Location: Unspecified
(0.0000°N, 0.0000°E)
Time: 18:51:21
(UTC+00:00)

A-11 Canister half - Pass Details

Date: 25 November 2019
Orbit: 1515 x 1685 km, 47.2° (Epoch: 05 December)

Event Time Altitude Azimuth Distance (km) Brightness Sun altitude
Rises 15:35:46 0° 271° (W) 4,779 12.5 30.4°
Reaches altitude 10° 15:42:55 10° 306° (NW) 3,842 11.6 28.8°
Maximum altitude 15:44:46 11° 317° (NW) 3,804 11.4 28.4°
Drops below altitude 10° 15:46:38 10° 329° (NNW) 3,865 11.3 27.9°
Sets 15:54:02 0° 4° (N) 4,891 11.4 26.2°
